Regional Weather Roundup
Issued by NWS

Home | Current Version | Previous Version | Graphics & Text | Print | Product List | Glossary On
Versions: 1 2 3 4 5 6 7 8 9 10 11 12 13 14 15 16 17 18 19 20 21 22 23 24 25 26 27 28 29 30 31 32 33 34 35 36 37 38 39 40 41 42 43 44 45 46 47 48 49 50
071
ASUS44 KLIX 271910
RWRLA
LOUISIANA WEATHER ROUNDUP
NATIONAL WEATHER SERVICE NEW ORLEANS LA
100 PM CST TUE JAN 27 2015

NOTE: "FAIR" INDICATES FEW OR NO CLOUDS BELOW 12,000 FEET WITH NO
      SIGNIFICANT WEATHER AND/OR OBSTRUCTIONS TO VISIBILITY.
      SKY/WX - SKY CONDITION AND SIGNIFICANT WEATHER.
      TMP - AIR TEMPERATURE.    DP   - DEWPOINT TEMPERATURE.
      RH  - RELATIVE HUMIDITY.  PRES - PRESSURE.
      HX  - HEAT INDEX.         WCI  - WIND CHILL INDEX.

*  THESE STATIONS ARE NOT NWS OR FAA STATIONS AND ARE NOT UNDER
   NWS QUALITY CONTROL.

LAZ040-048-061>063-065-066-069-272000-
SOUTHEAST LOUISIANA

CITY           SKY/WX    TMP DP  RH WIND       PRES   REMARKS
N.O. AUDUBON     N/A     70  44  38 MISG        N/A
N.O. INTL ARPT SUNNY     67  40  37 N5        30.10F
N.O. LAKEFRONT SUNNY     59  47  64 W7        30.10F
N.O. DOWNTOWN* FAIR     N/A N/A N/A NW8       30.10F
SLIDELL        SUNNY     74  36  25 NW8       30.07F
BATON ROUGE    SUNNY     75  36  24 VRB6      30.09F
BOOTHVILLE     SUNNY     64  45  49 VRB3      30.10F
BELLE CHASSE   MOSUNNY   71  35  26 VRB7      30.09F
BOGALUSA*        N/A     72  34  25 N12       30.09F
GALLIANO*      CLEAR     72  41  32 MISG      30.10F
NEW ROADS*     FAIR      71  40  33 CALM      30.10F
GONZALES*      FAIR      72  40  31 NW8       30.09F
HAMMOND*       SUNNY     73  32  21 NW7       30.10F
HOUMA*         SUNNY     72  45  37 N3        30.10F
PORT FOURCHON* CLEAR     68  43  40 NE3       30.14F

$$

LAZ041-044-053-054-272000-
SOUTHWEST LOUISIANA

CITY           SKY/WX    TMP DP  RH WIND       PRES   REMARKS
LAKE CHARLES   SUNNY     73  44  35 E12       30.12F
LAFAYETTE      SUNNY     72  43  35 NE8       30.11F
PATTERSON      SUNNY     70  45  40 NE6       30.11F
SALT POINT       N/A     60  50  69 W5        30.10F
NEW IBERIA     SUNNY     71  43  36 CALM      30.11F
CHENAULT AIRPK SUNNY     72  43  35 NE5       30.12

$$

LAZ027-028-272000-
CENTRAL LOUISIANA

CITY           SKY/WX    TMP DP  RH WIND       PRES   REMARKS
FORT POLK      SUNNY     73  39  29 VRB7      30.11F
ALEXANDRIA INT SUNNY     72  38  29 VRB3      30.10F
ALEXANDRIA     SUNNY     72  40  31 CALM      30.12F

$$

LAZ001-002-272000-
NORTHWEST LOUISIANA

CITY           SKY/WX    TMP DP  RH WIND       PRES   REMARKS
SHREVEPORT     SUNNY     71  38  29 SW3       30.13F
BARKSDALE AFB  SUNNY     69  41  36 VRB2      30.13F
DTN SHREVEPORT SUNNY     69  38  32 CALM      30.13F

$$

LAZ014-016-272000-
NORTHEAST LOUISIANA

CITY           SKY/WX    TMP DP  RH WIND       PRES   REMARKS
MONROE         SUNNY     66  39  37 CALM      30.14F
TALLULAH       SUNNY     66  36  32 N9        30.12F

$$




USA.gov is the U.S. government's official web portal to all federal, state and local government web resources and services.